QPF
0.01 0.01 0.02 0.01 0.01 0.02 0.03 0.02 0.02 0.04 0.04 0.04 0.03 0.02 0.03 0.03 0.03 0.05 0.05 0.05 0.06 0.08 0.09 0.09 0.08 0.07 0.05 0.04 0.03 0.02 0.02 0.02 0.02 0.02 0.02 0.02 0.02 0.02 0.03 0.04 0.05 0.05 0.05
0.02 0.02 0.03 0.03 0.03 0.03 0.03 0.04 0.04 0.04 0.04 0.04 0.03 0.03 0.03 0.03 0.03 0.03 0.04 0.06 0.09 0.10 0.10 0.10 0.12 0.13 0.10 0.07 0.05 0.04 0.04 0.04 0.05 0.04 0.04 0.03 0.03 0.03 0.04 0.04 0.05 0.05 0.05
0.09 0.09 0.08 0.08 0.09 0.07 0.07 0.09 0.08 0.07 0.06 0.05 0.05 0.04 0.04 0.04 0.04 0.02 0.03 0.07 0.10 0.11 0.10 0.09 0.11 0.13 0.14 0.11 0.08 0.07 0.07 0.06 0.07 0.06 0.05 0.04 0.04 0.04 0.03 0.03 0.04 0.05 0.06
0.05 0.06 0.06 0.06 0.10 0.13 0.11 0.10 0.11 0.08 0.06 0.05 0.04 0.04 0.03 0.04 0.05 0.03 0.04 0.06 0.08 0.09 0.11 0.11 0.12 0.14 0.17 0.17 0.18 0.15 0.14 0.13 0.14 0.10 0.06 0.04 0.03 0.03 0.03 0.03 0.05 0.06 0.06
0.04 0.04 0.05 0.05 0.05 0.06 0.05 0.05 0.06 0.05 0.05 0.04 0.04 0.04 0.04 0.03 0.03 0.03 0.05 0.07 0.06 0.07 0.10 0.12 0.15 0.17 0.19 0.19 0.21 0.23 0.22 0.25 0.21 0.12 0.07 0.05 0.04 0.04 0.03 0.03 0.04 0.07 0.08
0.07 0.07 0.07 0.06 0.06 0.05 0.05 0.05 0.04 0.03 0.03 0.03 0.04 0.05 0.05 0.03 0.03 0.04 0.05 0.06 0.05 0.08 0.10 0.10 0.12 0.14 0.16 0.13 0.13 0.15 0.19 0.23 0.18 0.12 0.07 0.06 0.05 0.05 0.04 0.04 0.05 0.05 0.07
0.07 0.07 0.09 0.11 0.11 0.08 0.07 0.07 0.06 0.05 0.05 0.03 0.03 0.05 0.06 0.04 0.03 0.03 0.05 0.06 0.07 0.08 0.08 0.09 0.09 0.11 0.12 0.10 0.10 0.10 0.11 0.13 0.12 0.09 0.08 0.09 0.09 0.08 0.08 0.09 0.10 0.10 0.09
0.06 0.04 0.05 0.07 0.08 0.10 0.11 0.11 0.08 0.07 0.06 0.05 0.04 0.04 0.04 0.05 0.04 0.04 0.04 0.05 0.06 0.07 0.05 0.06 0.07 0.09 0.10 0.10 0.11 0.12 0.12 0.11 0.12 0.10 0.08 0.08 0.11 0.11 0.12 0.16 0.15 0.12 0.10
0.05 0.06 0.05 0.06 0.07 0.07 0.10 0.12 0.09 0.07 0.08 0.07 0.05 0.04 0.03 0.03 0.03 0.03 0.04 0.04 0.04 0.04 0.05 0.05 0.06 0.09 0.12 0.12 0.11 0.09 0.08 0.07 0.08 0.09 0.07 0.06 0.08 0.10 0.13 0.13 0.11 0.11 0.10
0.04 0.03 0.03 0.03 0.04 0.07 0.08 0.09 0.08 0.07 0.07 0.07 0.06 0.04 0.04 0.04 0.04 0.03 0.03 0.03 0.04 0.04 0.05 0.07 0.09 0.11 0.12 0.11 0.09 0.07 0.06 0.07 0.08 0.07 0.06 0.05 0.06 0.05 0.05 0.07 0.09 0.08 0.08
0.02 0.02 0.02 0.02 0.03 0.04 0.05 0.06 0.06 0.07 0.06 0.06 0.06 0.05 0.04 0.04 0.04 0.04 0.03 0.03 0.04 0.06 0.07 0.10 0.11 0.10 0.08 0.06 0.06 0.08 0.08 0.07 0.05 0.03 0.03 0.03 0.04 0.04 0.04 0.05 0.06 0.07 0.07
0.02 0.02 0.01 0.02 0.02 0.03 0.03 0.04 0.04 0.05 0.06 0.05 0.05 0.05 0.05 0.05 0.04 0.04 0.03 0.02 0.03 0.05 0.06 0.06 0.05 0.05 0.05 0.06 0.06 0.07 0.08 0.07 0.05 0.03 0.02 0.02 0.02 0.03 0.03 0.03 0.03 0.04 0.05
0.01 0.01 0.01 0.01 0.02 0.03 0.03 0.03 0.03 0.02 0.03 0.04 0.04 0.04 0.04 0.03 0.04 0.04 0.03 0.02 0.02 0.02 0.02 0.02 0.02 0.03 0.03 0.03 0.04 0.06 0.06 0.05 0.05 0.03 0.03 0.03 0.04 0.04 0.03 0.02 0.02 0.03 0.03
0.01 0.01 0.01 0.01 0.02 0.02 0.03 0.04 0.03 0.02 0.03 0.03 0.02 0.02 0.03 0.03 0.04 0.03 0.03 0.03 0.03 0.03 0.02 0.02 0.02 0.02 0.02 0.03 0.04 0.04 0.03 0.04 0.05 0.04 0.04 0.04 0.04 0.04 0.04 0.03 0.03 0.03 0.03
0.02 0.02 0.02 0.02 0.03 0.03 0.02 0.03 0.03 0.03 0.03 0.03 0.03 0.03 0.03 0.03 0.04 0.04 0.04 0.04 0.05 0.04 0.03 0.01 0.01 0.02 0.03 0.03 0.04 0.04 0.04 0.05 0.04 0.04 0.04 0.04 0.03 0.03 0.03 0.03 0.02 0.02 0.02
0.02 0.02 0.02 0.03 0.03 0.04 0.04 0.03 0.03 0.03 0.03 0.04 0.04 0.04 0.03 0.03 0.03 0.04 0.05 0.04 0.03 0.03 0.03 0.02 0.02 0.03 0.04 0.04 0.04 0.04 0.05 0.06 0.05 0.04 0.03 0.04 0.04 0.03 0.03 0.02 0.02 0.01 0.01
0.03 0.03 0.03 0.04 0.03 0.03 0.04 0.03 0.03 0.03 0.04 0.04 0.04 0.04 0.03 0.03 0.03 0.04 0.05 0.04 0.04 0.04 0.04 0.03 0.03 0.03 0.02 0.04 0.07 0.08 0.06 0.05 0.05 0.04 0.03 0.03 0.03 0.04 0.04 0.03 0.02 0.01 0.01
0.03 0.03 0.04 0.05 0.04 0.03 0.03 0.02 0.02 0.03 0.03 0.03 0.03 0.03 0.03 0.04 0.04 0.04 0.04 0.04 0.03 0.04 0.05 0.04 0.03 0.02 0.03 0.03 0.05 0.07 0.07 0.06 0.04 0.04 0.04 0.03 0.03 0.05 0.03 0.02 0.01 0.01 0.01
0.03 0.03 0.03 0.04 0.04 0.04 0.04 0.03 0.02 0.02 0.02 0.02 0.03 0.03 0.03 0.03 0.03 0.04 0.03 0.02 0.02 0.03 0.04 0.04 0.03 0.02 0.02 0.03 0.04 0.05 0.06 0.06 0.05 0.04 0.05 0.04 0.05 0.05 0.03 0.02 0.01 0.01 0.01
0.03 0.03 0.03 0.04 0.04 0.04 0.03 0.03 0.03 0.03 0.03 0.03 0.04 0.04 0.03 0.03 0.04 0.04 0.03 0.03 0.03 0.03 0.04 0.05 0.04 0.03 0.03 0.03 0.04 0.06 0.06 0.05 0.05 0.04 0.05 0.05 0.05 0.04 0.03 0.03 0.02 0.02 0.02
0.02 0.02 0.02 0.02 0.02 0.02 0.02 0.03 0.04 0.03 0.03 0.02 0.02 0.02 0.02 0.03 0.03 0.03 0.03 0.03 0.03 0.04 0.05 0.05 0.05 0.04 0.04 0.04 0.04 0.05 0.04 0.04 0.04 0.04 0.05 0.04 0.04 0.04 0.03 0.03 0.03 0.02 0.02
0.02 0.01 0.02 0.01 0.01 0.01 0.01 0.01 0.02 0.03 0.02 0.02 0.01 0.01 0.02 0.02 0.02 0.02 0.03 0.04 0.05 0.07 0.07 0.06 0.06 0.05 0.05 0.05 0.06 0.07 0.07 0.07 0.06 0.06 0.05 0.05 0.04 0.04 0.03 0.03 0.03 0.03 0.03
0.03 0.03 0.02 0.02 0.02 0.01 0.01 0.01 0.01 0.02 0.02 0.02 0.01 0.01 0.02 0.01 0.03 0.04 0.05 0.05 0.05 0.07 0.08 0.07 0.07 0.07 0.07 0.07 0.07 0.08 0.10 0.10 0.07 0.06 0.06 0.06 0.05 0.04 0.03 0.03 0.02 0.02 0.02
0.02 0.02 0.01 0.01 0.01 0.01 0.02 0.02 0.02 0.02 0.01 0.01 0.01 0.01 0.01 0.02 0.02 0.04 0.06 0.06 0.06 0.07 0.08 0.07 0.07 0.06 0.05 0.06 0.07 0.07 0.08 0.07 0.05 0.04 0.03 0.04 0.04 0.03 0.03 0.03 0.02 0.01 0.02
0.02 0.02 0.02 0.02 0.02 0.01 0.01 0.01 0.02 0.01 0.01 0.01 0.01 0.01 0.02 0.01 0.02 0.04 0.05 0.05 0.06 0.06 0.06 0.05 0.05 0.04 0.04 0.04 0.05 0.05 0.06 0.06 0.06 0.04 0.02 0.03 0.03 0.03 0.03 0.03 0.02 0.02 0.02
0.01 0.01 0.01 0.01 0.01 0.00 0.01 0.01 0.02 0.01 0.01 0.01 0.02 0.02 0.02 0.02 0.02 0.04 0.04 0.04 0.04 0.05 0.05 0.05 0.04 0.03 0.03 0.03 0.04 0.04 0.04 0.05 0.04 0.03 0.02 0.03 0.02 0.03 0.04 0.04 0.03 0.03 0.02
MSLP
1012.75 1012.89 1013.02 1013.15 1013.28 1013.43 1013.59 1013.77 1013.95 1014.10 1014.23 1014.32 1014.38 1014.41 1014.44 1014.49 1014.57 1014.70 1014.87 1015.07 1015.30 1015.53 1015.77 1015.99 1016.20 1016.39 1016.59 1016.79 1016.99 1017.20 1017.43 1017.66 1017.90 1018.15 1018.41 1018.68 1018.95 1019.22 1019.48 1019.72 1019.94 1020.12 1020.30
1012.95 1013.09 1013.20 1013.32 1013.44 1013.59 1013.75 1013.93 1014.11 1014.27 1014.41 1014.50 1014.56 1014.58 1014.58 1014.58 1014.60 1014.65 1014.74 1014.87 1015.04 1015.23 1015.44 1015.66 1015.88 1016.10 1016.32 1016.53 1016.74 1016.95 1017.16 1017.38 1017.62 1017.87 1018.14 1018.43 1018.73 1019.03 1019.32 1019.60 1019.86 1020.08 1020.28
1013.09 1013.22 1013.34 1013.46 1013.58 1013.73 1013.90 1014.08 1014.27 1014.45 1014.60 1014.71 1014.77 1014.79 1014.76 1014.72 1014.67 1014.64 1014.64 1014.68 1014.76 1014.88 1015.05 1015.24 1015.45 1015.67 1015.89 1016.11 1016.32 1016.54 1016.75 1016.97 1017.20 1017.46 1017.74 1018.04 1018.36 1018.70 1019.04 1019.37 1019.67 1019.95 1020.20
1013.13 1013.25 1013.37 1013.49 1013.63 1013.79 1013.96 1014.15 1014.36 1014.55 1014.72 1014.85 1014.93 1014.96 1014.93 1014.86 1014.76 1014.66 1014.57 1014.51 1014.49 1014.53 1014.61 1014.75 1014.92 1015.13 1015.34 1015.56 1015.78 1016.00 1016.21 1016.43 1016.67 1016.92 1017.21 1017.53 1017.87 1018.24 1018.62 1018.99 1019.35 1019.68 1019.99
1013.05 1013.15 1013.26 1013.39 1013.53 1013.69 1013.88 1014.08 1014.29 1014.50 1014.70 1014.86 1014.97 1015.03 1015.02 1014.95 1014.83 1014.68 1014.52 1014.38 1014.27 1014.21 1014.21 1014.28 1014.40 1014.56 1014.75 1014.96 1015.18 1015.39 1015.61 1015.83 1016.06 1016.32 1016.61 1016.93 1017.28 1017.67 1018.07 1018.48 1018.88 1019.27 1019.64
1012.86 1012.93 1013.03 1013.15 1013.29 1013.45 1013.63 1013.84 1014.06 1014.28 1014.50 1014.70 1014.86 1014.97 1015.01 1014.97 1014.87 1014.72 1014.53 1014.33 1014.15 1014.01 1013.93 1013.91 1013.96 1014.07 1014.23 1014.41 1014.61 1014.81 1015.02 1015.24 1015.46 1015.72 1015.99 1016.31 1016.65 1017.03 1017.43 1017.85 1018.28 1018.70 1019.11
1012.65 1012.67 1012.73 1012.83 1012.96 1013.11 1013.28 1013.48 1013.69 1013.93 1014.17 1014.41 1014.62 1014.80 1014.91 1014.94 1014.90 1014.78 1014.60 1014.39 1014.18 1013.98 1013.84 1013.75 1013.73 1013.77 1013.87 1014.01 1014.18 1014.35 1014.54 1014.74 1014.95 1015.18 1015.44 1015.72 1016.04 1016.38 1016.76 1017.15 1017.56 1017.99 1018.41
1012.50 1012.47 1012.49 1012.55 1012.65 1012.78 1012.93 1013.10 1013.30 1013.54 1013.79 1014.06 1014.33 1014.58 1014.77 1014.90 1014.94 1014.89 1014.77 1014.59 1014.38 1014.17 1013.98 1013.84 1013.76 1013.74 1013.77 1013.85 1013.96 1014.10 1014.25 1014.41 1014.59 1014.79 1015.00 1015.24 1015.50 1015.78 1016.10 1016.44 1016.80 1017.18 1017.59
1012.53 1012.44 1012.42 1012.44 1012.51 1012.60 1012.71 1012.85 1013.03 1013.24 1013.50 1013.78 1014.09 1014.40 1014.67 1014.89 1015.03 1015.08 1015.04 1014.93 1014.76 1014.56 1014.37 1014.20 1014.07 1013.99 1013.96 1013.97 1014.02 1014.09 1014.18 1014.29 1014.42 1014.56 1014.71 1014.88 1015.08 1015.28 1015.51 1015.76 1016.04 1016.35 1016.69
1012.81 1012.68 1012.62 1012.60 1012.63 1012.68 1012.75 1012.85 1012.99 1013.17 1013.40 1013.68 1014.00 1014.34 1014.68 1014.97 1015.20 1015.35 1015.40 1015.37 1015.27 1015.12 1014.95 1014.78 1014.62 1014.49 1014.40 1014.34 1014.30 1014.30 1014.32 1014.36 1014.41 1014.49 1014.58 1014.68 1014.79 1014.91 1015.04 1015.19 1015.36 1015.56 1015.81
1013.35 1013.20 1013.10 1013.06 1013.05 1013.06 1013.10 1013.16 1013.24 1013.38 1013.57 1013.82 1014.12 1014.46 1014.82 1015.15 1015.44 1015.67 1015.81 1015.86 1015.84 1015.76 1015.63 1015.48 1015.32 1015.16 1015.01 1014.88 1014.76 1014.67 1014.60 1014.56 1014.54 1014.55 1014.57 1014.60 1014.63 1014.67 1014.70 1014.74 1014.80 1014.88 1015.01
1014.10 1013.95 1013.84 1013.77 1013.74 1013.73 1013.73 1013.75 1013.79 1013.87 1014.01 1014.21 1014.46 1014.77 1015.10 1015.44 1015.75 1016.02 1016.22 1016.34 1016.40 1016.39 1016.32 1016.20 1016.05 1015.88 1015.69 1015.49 1015.30 1015.13 1014.97 1014.84 1014.75 1014.68 1014.64 1014.60 1014.58 1014.54 1014.50 1014.45 1014.40 1014.37 1014.38
1014.98 1014.83 1014.73 1014.66 1014.61 1014.58 1014.56 1014.55 1014.56 1014.60 1014.68 1014.81 1015.00 1015.24 1015.52 1015.81 1016.10 1016.37 1016.60 1016.77 1016.88 1016.94 1016.93 1016.86 1016.74 1016.57 1016.36 1016.11 1015.86 1015.60 1015.36 1015.15 1014.97 1014.84 1014.74 1014.67 1014.60 1014.52 1014.42 1014.30 1014.17 1014.04 1013.94
1015.86 1015.74 1015.64 1015.58 1015.54 1015.51 1015.49 1015.47 1015.45 1015.46 1015.49 1015.56 1015.68 1015.83 1016.03 1016.26 1016.49 1016.73 1016.95 1017.14 1017.29 1017.39 1017.44 1017.42 1017.33 1017.18 1016.96 1016.68 1016.38 1016.05 1015.74 1015.45 1015.21 1015.02 1014.88 1014.77 1014.67 1014.57 1014.44 1014.29 1014.10 1013.90 1013.72
1016.66 1016.57 1016.50 1016.46 1016.43 1016.41 1016.40 1016.39 1016.38 1016.36 1016.37 1016.39 1016.44 1016.52 1016.63 1016.77 1016.93 1017.11 1017.29 1017.47 1017.63 1017.76 1017.85 1017.88 1017.83 1017.70 1017.48 1017.20 1016.85 1016.48 1016.10 1015.75 1015.45 1015.21 1015.03 1014.90 1014.79 1014.68 1014.56 1014.39 1014.18 1013.95 1013.70
1017.34 1017.28 1017.24 1017.22 1017.22 1017.23 1017.24 1017.25 1017.26 1017.26 1017.25 1017.25 1017.25 1017.27 1017.31 1017.36 1017.44 1017.55 1017.67 1017.81 1017.96 1018.10 1018.21 1018.27 1018.26 1018.16 1017.96 1017.67 1017.31 1016.90 1016.48 1016.08 1015.73 1015.44 1015.23 1015.08 1014.96 1014.86 1014.74 1014.58 1014.38 1014.13 1013.86
1017.91 1017.88 1017.86 1017.87 1017.90 1017.94 1017.99 1018.04 1018.08 1018.10 1018.11 1018.11 1018.10 1018.08 1018.06 1018.04 1018.05 1018.08 1018.14 1018.23 1018.35 1018.47 1018.59 1018.66 1018.68 1018.60 1018.42 1018.14 1017.78 1017.35 1016.90 1016.46 1016.07 1015.74 1015.50 1015.32 1015.20 1015.09 1014.98 1014.84 1014.65 1014.42 1014.15
1018.42 1018.42 1018.44 1018.47 1018.53 1018.60 1018.68 1018.76 1018.84 1018.90 1018.94 1018.96 1018.95 1018.91 1018.86 1018.80 1018.74 1018.71 1018.70 1018.74 1018.81 1018.90 1019.00 1019.08 1019.10 1019.04 1018.88 1018.62 1018.26 1017.84 1017.38 1016.91 1016.49 1016.13 1015.84 1015.64 1015.49 1015.38 1015.28 1015.14 1014.97 1014.75 1014.49
1018.94 1018.98 1019.02 1019.08 1019.16 1019.25 1019.36 1019.47 1019.57 1019.67 1019.74 1019.78 1019.78 1019.75 1019.69 1019.60 1019.51 1019.42 1019.35 1019.32 1019.33 1019.38 1019.45 1019.50 1019.52 1019.47 1019.33 1019.09 1018.76 1018.35 1017.89 1017.42 1016.98 1016.59 1016.27 1016.03 1015.86 1015.72 1015.60 1015.47 1015.30 1015.09 1014.84
1019.52 1019.59 1019.67 1019.75 1019.84 1019.95 1020.06 1020.17 1020.29 1020.40 1020.48 1020.55 1020.57 1020.55 1020.49 1020.39 1020.27 1020.14 1020.02 1019.93 1019.88 1019.88 1019.89 1019.92 1019.92 1019.87 1019.74 1019.53 1019.23 1018.84 1018.40 1017.95 1017.50 1017.10 1016.75 1016.48 1016.27 1016.10 1015.95 1015.80 1015.62 1015.41 1015.16
1020.16 1020.28 1020.38 1020.49 1020.58 1020.68 1020.78 1020.87 1020.97 1021.07 1021.16 1021.22 1021.26 1021.25 1021.19 1021.09 1020.96 1020.80 1020.64 1020.50 1020.39 1020.32 1020.28 1020.26 1020.24 1020.18 1020.07 1019.88 1019.61 1019.27 1018.87 1018.44 1018.01 1017.60 1017.25 1016.95 1016.70 1016.49 1016.30 1016.12 1015.92 1015.70 1015.45
1020.85 1021.01 1021.15 1021.26 1021.36 1021.43 1021.49 1021.54 1021.60 1021.66 1021.72 1021.77 1021.80 1021.80 1021.74 1021.65 1021.50 1021.33 1021.14 1020.96 1020.80 1020.67 1020.58 1020.51 1020.45 1020.38 1020.28 1020.12 1019.89 1019.59 1019.24 1018.86 1018.46 1018.07 1017.72 1017.40 1017.12 1016.88 1016.66 1016.45 1016.22 1015.97 1015.70
1021.53 1021.73 1021.90 1022.02 1022.10 1022.14 1022.15 1022.14 1022.14 1022.14 1022.16 1022.17 1022.18 1022.16 1022.12 1022.02 1021.88 1021.70 1021.49 1021.28 1021.08 1020.90 1020.76 1020.65 1020.56 1020.48 1020.37 1020.23 1020.04 1019.80 1019.51 1019.17 1018.82 1018.47 1018.12 1017.81 1017.52 1017.26 1017.01 1016.76 1016.50 1016.22 1015.93
1022.14 1022.38 1022.57 1022.69 1022.75 1022.75 1022.70 1022.63 1022.56 1022.49 1022.45 1022.42 1022.40 1022.37 1022.32 1022.23 1022.09 1021.92 1021.70 1021.48 1021.25 1021.04 1020.86 1020.72 1020.60 1020.50 1020.39 1020.27 1020.11 1019.91 1019.67 1019.39 1019.09 1018.78 1018.47 1018.17 1017.88 1017.61 1017.34 1017.07 1016.78 1016.48 1016.15
1022.64 1022.91 1023.11 1023.23 1023.27 1023.23 1023.14 1023.00 1022.86 1022.73 1022.63 1022.56 1022.50 1022.46 1022.40 1022.32 1022.20 1022.04 1021.84 1021.61 1021.37 1021.15 1020.95 1020.78 1020.64 1020.52 1020.41 1020.29 1020.16 1019.99 1019.79 1019.56 1019.29 1019.02 1018.74 1018.47 1018.20 1017.93 1017.66 1017.37 1017.07 1016.74 1016.38
1023.00 1023.29 1023.50 1023.62 1023.65 1023.58 1023.45 1023.27 1023.08 1022.90 1022.76 1022.64 1022.56 1022.51 1022.45 1022.38 1022.28 1022.13 1021.95 1021.74 1021.52 1021.29 1021.09 1020.90 1020.75 1020.62 1020.50 1020.38 1020.25 1020.09 1019.91 1019.70 1019.47 1019.23 1018.97 1018.72 1018.47 1018.21 1017.94 1017.66 1017.34 1017.00 1016.63
Thickness
5774 5773 5772 5771 5771 5770 5769 5768 5767 5766 5765 5764 5764 5763 5762 5761 5759 5758 5757 5757 5755 5754 5752 5751 5749 5747 5745 5743 5741 5738 5736 5734 5732 5730 5728 5727 5725 5724 5722 5721 5720 5719 5717
5774 5773 5772 5771 5770 5770 5769 5768 5766 5765 5765 5764 5763 5762 5761 5760 5759 5758 5756 5756 5755 5753 5752 5750 5748 5746 5744 5742 5739 5737 5735 5733 5731 5730 5728 5726 5725 5723 5722 5720 5719 5718 5717
5774 5772 5771 5770 5770 5770 5769 5768 5766 5765 5764 5763 5762 5761 5760 5759 5759 5757 5756 5755 5754 5752 5751 5749 5747 5746 5743 5741 5739 5737 5735 5733 5731 5729 5727 5726 5725 5723 5722 5720 5719 5718 5717
5774 5773 5772 5771 5771 5769 5768 5767 5765 5763 5762 5761 5760 5760 5759 5758 5758 5757 5755 5754 5752 5751 5749 5748 5747 5745 5743 5741 5739 5737 5735 5732 5730 5728 5727 5726 5724 5723 5721 5720 5718 5717 5716
5775 5774 5773 5772 5771 5769 5768 5767 5765 5763 5761 5760 5759 5758 5758 5758 5757 5756 5755 5753 5751 5750 5749 5747 5746 5745 5743 5741 5739 5737 5735 5733 5730 5728 5727 5725 5724 5723 5721 5719 5718 5717 5716
5776 5775 5773 5772 5771 5769 5768 5766 5764 5763 5761 5759 5759 5757 5757 5757 5756 5755 5754 5753 5751 5749 5748 5747 5745 5744 5743 5741 5738 5736 5734 5732 5730 5728 5726 5725 5724 5722 5721 5719 5718 5717 5715
5777 5775 5774 5772 5771 5769 5767 5766 5764 5761 5759 5759 5755 5752 5754 5755 5755 5754 5753 5752 5750 5749 5748 5746 5745 5743 5742 5740 5738 5736 5734 5732 5730 5728 5726 5725 5724 5722 5721 5719 5718 5716 5715
5777 5776 5774 5772 5771 5769 5767 5766 5764 5761 5759 5758 5753 5748 5744 5746 5750 5753 5752 5751 5750 5748 5747 5746 5744 5742 5741 5739 5738 5735 5733 5731 5730 5728 5726 5725 5724 5722 5720 5719 5717 5716 5715
5776 5775 5774 5772 5771 5769 5767 5766 5764 5761 5756 5755 5754 5749 5742 5739 5742 5747 5749 5749 5748 5747 5746 5745 5743 5741 5740 5738 5736 5734 5733 5731 5729 5728 5726 5724 5723 5721 5720 5718 5716 5715 5714
5776 5775 5773 5772 5770 5769 5767 5766 5765 5762 5758 5753 5752 5751 5749 5745 5740 5738 5743 5745 5745 5745 5744 5743 5741 5740 5739 5737 5735 5734 5732 5730 5728 5726 5724 5722 5721 5719 5718 5716 5715 5714 5712
5774 5774 5772 5771 5769 5768 5766 5765 5763 5761 5758 5755 5752 5749 5747 5744 5742 5737 5734 5738 5740 5741 5741 5740 5739 5738 5737 5735 5734 5732 5730 5728 5726 5724 5722 5720 5718 5717 5716 5714 5713 5712 5711
5772 5771 5771 5769 5768 5766 5765 5764 5762 5760 5757 5755 5753 5750 5747 5743 5740 5737 5734 5733 5734 5736 5738 5738 5737 5736 5735 5733 5732 5731 5728 5726 5724 5722 5720 5718 5716 5715 5713 5712 5711 5710 5709
5768 5769 5769 5767 5766 5765 5764 5762 5760 5758 5756 5754 5752 5750 5748 5746 5743 5740 5736 5732 5731 5733 5734 5735 5735 5734 5733 5731 5729 5728 5726 5724 5722 5720 5718 5716 5713 5712 5711 5710 5709 5707 5706
5767 5767 5767 5765 5764 5763 5762 5760 5758 5756 5755 5753 5751 5749 5747 5745 5743 5741 5737 5732 5728 5728 5729 5730 5732 5731 5729 5728 5726 5724 5722 5721 5719 5717 5715 5713 5710 5709 5707 5707 5705 5704 5703
5767 5766 5765 5763 5762 5761 5760 5758 5756 5754 5752 5751 5749 5747 5745 5744 5742 5740 5737 5734 5728 5723 5724 5727 5727 5728 5726 5724 5723 5721 5719 5718 5716 5714 5712 5710 5708 5706 5704 5703 5701 5700 5699
5765 5763 5762 5761 5760 5759 5757 5755 5753 5752 5749 5748 5746 5744 5742 5741 5740 5738 5735 5732 5729 5725 5722 5724 5723 5723 5722 5721 5719 5717 5716 5714 5712 5710 5708 5706 5704 5702 5700 5698 5697 5696 5694
5763 5761 5760 5758 5757 5755 5754 5752 5750 5748 5746 5745 5743 5741 5739 5738 5736 5734 5732 5730 5726 5723 5719 5720 5719 5719 5717 5715 5714 5712 5711 5709 5707 5706 5704 5702 5699 5697 5695 5693 5692 5691 5689
5760 5758 5757 5755 5753 5752 5750 5748 5746 5745 5743 5741 5739 5738 5736 5735 5732 5730 5728 5726 5723 5720 5716 5713 5713 5712 5711 5710 5708 5707 5706 5704 5702 5700 5698 5696 5695 5693 5691 5689 5687 5686 5684
5756 5755 5753 5751 5750 5748 5747 5745 5743 5741 5740 5738 5736 5734 5733 5731 5728 5726 5724 5722 5720 5717 5713 5709 5707 5706 5705 5703 5701 5701 5700 5698 5697 5695 5693 5691 5690 5688 5686 5684 5682 5681 5679
5753 5751 5749 5748 5746 5745 5743 5742 5740 5737 5736 5734 5733 5731 5729 5727 5725 5723 5720 5718 5715 5712 5708 5705 5702 5700 5698 5697 5695 5693 5692 5691 5690 5690 5688 5686 5684 5683 5681 5679 5677 5676 5674
5750 5747 5745 5743 5742 5740 5739 5737 5735 5733 5731 5730 5728 5727 5725 5724 5722 5720 5718 5714 5712 5707 5703 5700 5697 5695 5692 5690 5689 5688 5685 5684 5684 5683 5681 5679 5678 5677 5675 5674 5672 5670 5668
5744 5742 5740 5738 5737 5736 5735 5733 5731 5729 5727 5725 5723 5722 5721 5720 5718 5716 5713 5711 5708 5704 5700 5696 5693 5689 5688 5686 5683 5681 5679 5677 5676 5676 5673 5672 5671 5670 5669 5668 5667 5664 5662
5739 5736 5735 5733 5732 5731 5730 5728 5727 5724 5722 5720 5718 5717 5716 5715 5712 5710 5707 5705 5703 5701 5698 5693 5689 5686 5684 5682 5678 5675 5673 5671 5670 5669 5666 5665 5664 5663 5664 5663 5661 5659 5658
5732 5730 5729 5728 5726 5725 5724 5722 5721 5718 5717 5715 5713 5712 5709 5708 5706 5703 5700 5697 5695 5694 5692 5689 5686 5683 5681 5678 5674 5671 5668 5665 5664 5661 5659 5657 5658 5657 5657 5656 5655 5654 5652
5725 5724 5722 5721 5719 5718 5717 5716 5714 5711 5710 5709 5708 5706 5703 5701 5699 5696 5693 5690 5688 5687 5686 5684 5681 5678 5675 5672 5669 5665 5661 5658 5657 5655 5652 5650 5650 5649 5649 5649 5648 5646 5645
5717 5717 5715 5715 5712 5711 5710 5709 5707 5705 5703 5702 5700 5699 5697 5695 5692 5689 5686 5683 5681 5680 5678 5676 5673 5671 5668 5665 5663 5660 5656 5652 5650 5648 5647 5643 5642 5640 5640 5641 5640 5638 5637